|
NORAD ID: 34979 Int'l Code: 1993-036AFJ
Perigee: 677.4 km
Apogee: 795.5 km
Inclination: 74.1 °
Period: 99.4 minutes
Semi major axis: 7107 km
Launch date: June 16, 1993
Source: Commonwealth of Independent States (former USSR) (CIS)
Note: This is SATELLITE DEBRIS
Two Line Element Set (TLE):
1 34979U 93036AFJ 13142.53232779 .00002548 00000-0 65173-3 0 7433
2 34979 074.0514 342.4977 0083130 153.3216 229.3262 14.48876881213914
Source:
NASA's NSSDC Master Catalog entry for COSMOS 2251 DEB
|